When you browse on this site, cookies collect data to enhance your experience and personalize the content and advertising you see.
Visit our Privacy Policy to learn more. By continuing to use the site, you agree to this use of cookies and data.
  • în România
  • Lista ţărilor
  • Pe 7 zile
  • Temperatura apei
  • Hartă satelitară
  • Meteo pe hartă
  • Widget-uri
  • user-avatar
    Intrare

    Meteo pe oră la Sari

    Astăzi, 20 Martie, Miercuri

    Timp Temperatura Precipitaţii Vânt Presiune Umiditate
    00:00 +10°C° 0.1 mm 1 m/s 762 mmHg 93%
    01:00 +10°C° 0.1 mm 1 m/s 762 mmHg 93%
    02:00 +10°C° 0.1 mm 1 m/s 762 mmHg 92%
    03:00 +10°C° 0.1 mm 1 m/s 761 mmHg 92%
    04:00 +10°C° 0.1 mm 1 m/s 761 mmHg 92%
    05:00 +10°C° 0.2 mm 1 m/s 761 mmHg 91%
    06:00 +10°C° 0.2 mm 1 m/s 761 mmHg 91%
    07:00 +10°C° 0.2 mm 1 m/s 762 mmHg 91%
    08:00 +10°C° 0.2 mm 1 m/s 762 mmHg 90%
    09:00 +10°C° 0.2 mm 1 m/s 762 mmHg 88%
    10:00 +11°C° 0.2 mm 1 m/s 762 mmHg 87%
    11:00 +10°C° 0.2 mm 2 m/s 762 mmHg 88%
    12:00 +10°C° 0.2 mm 2 m/s 761 mmHg 89%
    13:00 +10°C° 0.2 mm 3 m/s 761 mmHg 89%
    14:00 +9°C° 0.5 mm 3 m/s 761 mmHg 91%
    15:00 +9°C° 0.5 mm 3 m/s 761 mmHg 92%
    16:00 +9°C° 0.5 mm 3 m/s 761 mmHg 93%
    17:00 +8°C° 0.6 mm 3 m/s 761 mmHg 93%
    18:00 +8°C° 0.6 mm 3 m/s 762 mmHg 94%
    19:00 +8°C° 0.6 mm 2 m/s 762 mmHg 94%
    20:00 +8°C° 0.2 mm 2 m/s 762 mmHg 93%
    21:00 +8°C° 0.2 mm 2 m/s 762 mmHg 93%
    22:00 +8°C° 0.2 mm 2 m/s 762 mmHg 92%
    23:00 +9°C° 0 mm 1 m/s 762 mmHg 93%

    Mâine, 21 Martie, Joi

    Timp Temperatura Precipitaţii Vânt Presiune Umiditate
    00:00 +9°C° 0 mm 1 m/s 762 mmHg 93%
    01:00 +9°C° 0 mm 1 m/s 762 mmHg 93%
    02:00 +9°C° 0 mm 1 m/s 762 mmHg 93%
    03:00 +8°C° 0 mm 1 m/s 762 mmHg 94%
    04:00 +8°C° 0 mm 1 m/s 761 mmHg 94%
    05:00 +9°C° 0 mm 1 m/s 762 mmHg 94%
    06:00 +9°C° 0 mm 1 m/s 762 mmHg 94%
    07:00 +9°C° 0 mm 1 m/s 762 mmHg 94%
    08:00 +9°C° 0.1 mm 1 m/s 762 mmHg 92%
    09:00 +10°C° 0.1 mm 1 m/s 762 mmHg 90%
    10:00 +10°C° 0.1 mm 1 m/s 763 mmHg 88%
    11:00 +11°C° 0.1 mm 1 m/s 762 mmHg 87%
    12:00 +10°C° 0.1 mm 2 m/s 762 mmHg 86%
    13:00 +10°C° 0.1 mm 2 m/s 762 mmHg 84%
    14:00 +10°C° 0.3 mm 2 m/s 762 mmHg 86%
    15:00 +10°C° 0.3 mm 2 m/s 761 mmHg 87%
    16:00 +10°C° 0.3 mm 2 m/s 761 mmHg 89%
    17:00 +9°C° 0.3 mm 2 m/s 761 mmHg 90%
    18:00 +9°C° 0.3 mm 2 m/s 762 mmHg 91%
    19:00 +10°C° 0.3 mm 1 m/s 762 mmHg 92%
    20:00 +10°C° 0.1 mm 1 m/s 762 mmHg 92%
    21:00 +10°C° 0.1 mm 1 m/s 762 mmHg 92%
    22:00 +10°C° 0.1 mm 1 m/s 763 mmHg 92%
    23:00 +9°C° 0.1 mm 1 m/s 763 mmHg 91%

    Poimâine, 22 Martie, Vineri

    Timp Temperatura Precipitaţii Vânt Presiune Umiditate
    00:00 +8°C° 0.1 mm 0 m/s 763 mmHg 91%
    01:00 +8°C° 0.1 mm 0 m/s 762 mmHg 91%
    02:00 +8°C° 0 mm 0 m/s 762 mmHg 90%
    03:00 +8°C° 0 mm 1 m/s 762 mmHg 88%
    04:00 +8°C° 0 mm 1 m/s 762 mmHg 87%
    05:00 +8°C° 0 mm 1 m/s 762 mmHg 85%
    06:00 +8°C° 0 mm 1 m/s 763 mmHg 83%
    07:00 +8°C° 0 mm 1 m/s 763 mmHg 80%
    08:00 +10°C° 0 mm 1 m/s 763 mmHg 72%
    09:00 +12°C° 0 mm 1 m/s 763 mmHg 64%
    10:00 +14°C° 0 mm 1 m/s 763 mmHg 56%
    11:00 +15°C° 0 mm 1 m/s 763 mmHg 53%
    12:00 +16°C° 0 mm 2 m/s 762 mmHg 51%
    13:00 +17°C° 0 mm 2 m/s 762 mmHg 49%
    14:00 +17°C° 0 mm 3 m/s 762 mmHg 51%
    15:00 +17°C° 0 mm 3 m/s 761 mmHg 54%
    16:00 +15°C° 0 mm 4 m/s 761 mmHg 57%
    17:00 +14°C° 0 mm 3 m/s 761 mmHg 64%
    18:00 +12°C° 0 mm 3 m/s 761 mmHg 71%
    19:00 +12°C° 0 mm 2 m/s 761 mmHg 78%
    20:00 +12°C° 0 mm 2 m/s 761 mmHg 78%
    21:00 +10°C° 0 mm 2 m/s 762 mmHg 78%
    22:00 +10°C° 0 mm 2 m/s 762 mmHg 77%
    23:00 +11°C° 0 mm 1 m/s 762 mmHg 76%

    23 Martie, Sâmbătă

    Timp Temperatura Precipitaţii Vânt Presiune Umiditate
    00:00 +10°C° 0 mm 1 m/s 761 mmHg 74%
    01:00 +10°C° 0 mm 1 m/s 761 mmHg 72%
    02:00 +10°C° 0 mm 1 m/s 761 mmHg 70%
    03:00 +10°C° 0 mm 1 m/s 761 mmHg 68%
    04:00 +10°C° 0 mm 1 m/s 761 mmHg 66%
    05:00 +10°C° 0 mm 1 m/s 762 mmHg 66%
    06:00 +10°C° 0 mm 1 m/s 762 mmHg 65%
    07:00 +10°C° 0 mm 1 m/s 762 mmHg 64%
    08:00 +11°C° 0 mm 1 m/s 763 mmHg 60%
    09:00 +13°C° 0 mm 1 m/s 763 mmHg 55%
    10:00 +15°C° 0 mm 2 m/s 763 mmHg 51%
    11:00 +16°C° 0 mm 2 m/s 763 mmHg 51%
    12:00 +16°C° 0 mm 3 m/s 762 mmHg 51%
    13:00 +17°C° 0 mm 4 m/s 762 mmHg 51%
    14:00 +17°C° 0 mm 4 m/s 761 mmHg 53%
    15:00 +17°C° 0 mm 4 m/s 761 mmHg 55%
    16:00 +16°C° 0 mm 3 m/s 760 mmHg 57%
    17:00 +14°C° 0 mm 3 m/s 760 mmHg 63%
    18:00 +13°C° 0 mm 2 m/s 760 mmHg 70%
    19:00 +12°C° 0 mm 1 m/s 760 mmHg 76%
    20:00 +12°C° 0 mm 1 m/s 760 mmHg 78%
    21:00 +11°C° 0 mm 1 m/s 760 mmHg 79%
    22:00 +11°C° 0 mm 1 m/s 760 mmHg 81%
    23:00 +11°C° 0 mm 1 m/s 760 mmHg 80%

    24 Martie, Duminică

    Timp Temperatura Precipitaţii Vânt Presiune Umiditate
    00:00 +10°C° 0 mm 0 m/s 759 mmHg 80%
    01:00 +9°C° 0 mm 0 m/s 759 mmHg 79%
    02:00 +9°C° 0 mm 0 m/s 759 mmHg 80%
    03:00 +9°C° 0 mm 0 m/s 759 mmHg 81%
    04:00 +9°C° 0 mm 0 m/s 758 mmHg 82%
    05:00 +9°C° 0 mm 0 m/s 759 mmHg 82%
    06:00 +9°C° 0 mm 0 m/s 759 mmHg 81%
    07:00 +9°C° 0 mm 0 m/s 759 mmHg 80%
    08:00 +12°C° 0 mm 1 m/s 759 mmHg 75%
    09:00 +13°C° 0 mm 1 m/s 760 mmHg 70%
    10:00 +15°C° 0 mm 2 m/s 760 mmHg 65%
    11:00 +15°C° 0.1 mm 2 m/s 761 mmHg 66%
    12:00 +14°C° 0.1 mm 3 m/s 761 mmHg 67%
    13:00 +15°C° 0.1 mm 4 m/s 761 mmHg 67%
    14:00 +14°C° 0.4 mm 3 m/s 761 mmHg 72%
    15:00 +14°C° 0.4 mm 2 m/s 761 mmHg 77%
    16:00 +13°C° 0.4 mm 2 m/s 761 mmHg 82%
    17:00 +13°C° 0.2 mm 1 m/s 761 mmHg 83%
    18:00 +12°C° 0.2 mm 1 m/s 761 mmHg 84%
    19:00 +11°C° 0.2 mm 0 m/s 762 mmHg 86%
    20:00 +11°C° 0 mm 0 m/s 762 mmHg 86%
    21:00 +10°C° 0 mm 0 m/s 762 mmHg 87%
    22:00 +11°C° 0 mm 1 m/s 762 mmHg 88%
    23:00 +10°C° 0 mm 1 m/s 762 mmHg 87%

    25 Martie, Luni

    Timp Temperatura Precipitaţii Vânt Presiune Umiditate
    00:00 +10°C° 0 mm 1 m/s 762 mmHg 85%
    01:00 +10°C° 0 mm 1 m/s 761 mmHg 84%
    02:00 +10°C° 0 mm 1 m/s 761 mmHg 81%
    03:00 +8°C° 0 mm 2 m/s 761 mmHg 78%
    04:00 +8°C° 0 mm 2 m/s 761 mmHg 75%
    05:00 +8°C° 0 mm 2 m/s 761 mmHg 73%
    06:00 +8°C° 0 mm 2 m/s 761 mmHg 71%
    07:00 +8°C° 0 mm 2 m/s 761 mmHg 69%
    08:00 +10°C° 0 mm 2 m/s 761 mmHg 62%
    09:00 +12°C° 0 mm 3 m/s 761 mmHg 55%
    10:00 +14°C° 0 mm 3 m/s 761 mmHg 47%
    11:00 +16°C° 0 mm 3 m/s 760 mmHg 45%
    12:00 +17°C° 0 mm 4 m/s 760 mmHg 42%
    13:00 +18°C° 0 mm 4 m/s 759 mmHg 40%
    14:00 +18°C° 0 mm 4 m/s 759 mmHg 42%
    15:00 +18°C° 0 mm 4 m/s 759 mmHg 44%
    16:00 +18°C° 0 mm 4 m/s 758 mmHg 45%
    17:00 +17°C° 0 mm 3 m/s 758 mmHg 51%
    18:00 +15°C° 0 mm 2 m/s 759 mmHg 57%
    19:00 +13°C° 0 mm 2 m/s 759 mmHg 63%
    20:00 +13°C° 0 mm 1 m/s 759 mmHg 63%
    21:00 +13°C° 0 mm 1 m/s 759 mmHg 63%
    22:00 +12°C° 0 mm 1 m/s 759 mmHg 63%
    23:00 +12°C° 0 mm 1 m/s 759 mmHg 62%
    Arată mai mult